Baltimore Martin, MD

7:06 AM EDT on September 26, 2017 (GMT -0400)
Martin State

Weather History for KMTN - February, 2013

Change the Weather History Date:

Tuesday, February 5, 2013

  Actual Average Record
Temperature  
Mean Temperature 34 °F -  
Max Temperature 37 °F 41 °F 57 °F (2008)
Min Temperature 32 °F 26 °F 12 °F (2007)
Degree Days  
Heating Degree Days 30    
Moisture  
Dew Point 28 °F    
Average Humidity 80    
Maximum Humidity 100    
Minimum Humidity 70    
Precipitation  
Precipitation 0.00 in - - ()
Sea Level Pressure  
Sea Level Pressure 29.92 in    
Wind  
Wind Speed 1 mph (NNE)    
Max Wind Speed 5 mph    
Max Gust Speed -    
Visibility 10 miles    
Events      
Averages and records for this station are not official NWS values.
T = Trace of Precipitation, MM = Missing Value Source: NWS Daily Summary

Daily Weather History Graph

Daily Weather History Graph

Search for Another Location

Airport or City:

Trip Planner

Search our weather history database for the weather conditions in past years. The results will help you decide how hot, cold, wet, or windy it might be!

Date:

Astronomy

Feb. 05, 2013 Rise Set
Actual Time 7:08 AM EST 5:31 PM EST
Civil Twilight 6:40 AM EST 5:59 PM EST
Nautical Twilight 6:08 AM EST 6:31 PM EST
Astronomical Twilight 5:37 AM EST 7:02 PM EST
Moon 2:47 AM EST (2/5) 12:47 PM EST (2/5)
Length of Visible Light 11h 18m
Length of Day
10h 22m
Waning Crescent, 27% of the Moon is Illuminated
Feb 5
Waning Crescent
Feb 10
New
Feb 17
First Quarter
Feb 25
Full
Mar 4
Last Quarter

Hourly Weather History & Observations

Time (EST) Temp. Windchill Dew Point Humidity Pressure Visibility Wind Dir Wind Speed Gust Speed Precip Events Conditions
12:09 AM 33.8 °F - 26.6 °F 75% 29.93 in 10.0 mi Calm Calm - N/A   Overcast
12:30 AM 33.8 °F - 26.6 °F 75% 29.92 in 10.0 mi Calm Calm - N/A   Overcast
12:54 AM 32.0 °F - 26.6 °F 80% 29.92 in 10.0 mi Calm Calm - N/A   Mostly Cloudy
1:15 AM 32.0 °F 28.7 °F 26.6 °F 80% 29.92 in 10.0 mi NE 3.5 mph - N/A   Mostly Cloudy
1:36 AM 32.0 °F - 26.6 °F 80% 29.92 in 10.0 mi Calm Calm - N/A   Scattered Clouds
1:57 AM 32.0 °F - 26.6 °F 80% 29.92 in 10.0 mi Calm Calm - N/A   Overcast
2:18 AM 32.0 °F - 26.6 °F 80% 29.92 in 10.0 mi Calm Calm - N/A   Overcast
2:39 AM 32.0 °F - 26.6 °F 80% 29.92 in 10.0 mi Calm Calm - N/A   Overcast
3:00 AM 32.0 °F - 26.6 °F 80% 29.90 in 10.0 mi Calm Calm - N/A   Overcast
3:21 AM 32.0 °F - 26.6 °F 80% 29.89 in 10.0 mi Calm Calm - N/A   Overcast
3:42 AM 32.0 °F - 26.6 °F 80% 29.89 in 10.0 mi Calm Calm - N/A   Mostly Cloudy
4:06 AM 32.0 °F - 26.6 °F 80% 29.90 in 10.0 mi Calm Calm - N/A   Overcast
4:27 AM 32.0 °F - 26.6 °F 80% 29.90 in 10.0 mi Calm Calm - N/A   Mostly Cloudy
4:48 AM 32.0 °F - 26.6 °F 80% 29.89 in 10.0 mi Calm Calm - N/A   Overcast
5:09 AM 32.0 °F - 26.6 °F 80% 29.90 in 10.0 mi Calm Calm - N/A   Overcast
5:30 AM 32.0 °F - 26.6 °F 80% 29.90 in 10.0 mi Calm Calm - N/A   Overcast
5:50 AM 32.0 °F - 26.6 °F 80% 29.91 in 10.0 mi Calm Calm - N/A   Mostly Cloudy
6:45 AM 32.0 °F - 26.6 °F 80% 29.91 in 10.0 mi Calm Calm - N/A   Overcast
7:45 AM 32.0 °F - 26.6 °F 80% 29.94 in 10.0 mi Calm Calm - N/A   Overcast
8:55 AM 33.8 °F - 26.6 °F 75% 29.95 in 10.0 mi Calm Calm - N/A   Mostly Cloudy
9:45 AM 35.6 °F - 26.6 °F 70% 29.97 in 10.0 mi Calm Calm - N/A   Mostly Cloudy
10:45 AM 35.6 °F - 26.6 °F 70% 29.96 in 10.0 mi Calm Calm - N/A   Mostly Cloudy
11:45 AM 35.6 °F 31.7 °F 26.6 °F 70% 29.96 in 10.0 mi North 4.6 mph - N/A   Mostly Cloudy
1:45 PM 37.4 °F 33.8 °F 28.4 °F 70% 29.90 in 10.0 mi ENE 4.6 mph - N/A   Overcast
2:45 PM 37.4 °F 33.8 °F 28.4 °F 70% 29.89 in 10.0 mi ENE 4.6 mph - N/A   Overcast
3:45 PM 37.4 °F 33.8 °F 28.4 °F 70% 29.90 in 10.0 mi ENE 4.6 mph - N/A   Overcast
4:45 PM 37.4 °F - 28.4 °F 70% 29.90 in 10.0 mi Calm Calm - N/A   Mostly Cloudy
5:45 PM 35.6 °F - 28.4 °F 75% 29.91 in 10.0 mi Calm Calm - N/A   Mostly Cloudy
6:45 PM 35.6 °F - 30.2 °F 81% 29.92 in 10.0 mi Calm Calm - N/A   Mostly Cloudy
7:45 PM 33.8 °F - 30.2 °F 87% 29.92 in 10.0 mi Calm Calm - N/A   Mostly Cloudy
8:45 PM 32.0 °F - 30.2 °F 93% 29.92 in 10.0 mi Calm Calm - N/A   Mostly Cloudy
9:50 PM 33.8 °F - 30.2 °F 87% 29.94 in 7.0 mi Calm Calm - N/A   Mostly Cloudy
10:54 PM 32.0 °F - 32.0 °F 100% 29.95 in 7.0 mi Calm Calm - N/A   Mostly Cloudy
11:15 PM 32.0 °F 28.7 °F 32.0 °F 100% 29.96 in 7.0 mi WNW 3.5 mph - N/A   Mostly Cloudy
11:57 PM 33.8 °F - 32.0 °F 93% 29.96 in 7.0 mi Calm Calm - N/A   Mostly Cloudy